This is the latest recevied weather packets stored in our database for station/object IK3MZS-10. If no packets are shown the sender has not sent any weather packets the latest 10 day(s).
| Time | Temp. | Humidity | Pressure | Rain* | Wind** | Luminosity | Snow |
|---|---|---|---|---|---|---|---|
| 1777348225 | 25° C | 42% | 1016.4 hPa | - | - | - | - |
| 1777344624 | 25° C | 41% | 1016.5 hPa | - | - | - | - |
| 1777341024 | 25° C | 42% | 1016.8 hPa | - | - | - | - |
| 1777337424 | 25° C | 41% | 1017 hPa | - | - | - | - |
| 1777333824 | 25° C | 40% | 1017.3 hPa | - | - | - | - |
| 1777330223 | 25° C | 39% | 1017.3 hPa | - | - | - | - |
| 1777326623 | 25° C | 39% | 1017.4 hPa | - | - | - | - |
| 1777323023 | 25.56° C | 41% | 1017.5 hPa | - | - | - | - |
| 1777319423 | 25° C | 40% | 1017.4 hPa | - | - | - | - |
| 1777315823 | 25.56° C | 39% | 1016.6 hPa | - | - | - | - |
| 1777312222 | 25.56° C | 39% | 1016.1 hPa | - | - | - | - |
| 1777308622 | 25.56° C | 40% | 1016 hPa | - | - | - | - |
| 1777305022 | 25.56° C | 42% | 1016.3 hPa | - | - | - | - |
| 1777301422 | 25° C | 40% | 1016.6 hPa | - | - | - | - |
| 1777297822 | 25° C | 40% | 1017.1 hPa | - | - | - | - |
| 1777294221 | 24.44° C | 40% | 1018.1 hPa | - | - | - | - |
| 1777290621 | 24.44° C | 39% | 1018.8 hPa | - | - | - | - |
| 1777287021 | 23.89° C | 39% | 1019.2 hPa | - | - | - | - |
| 1777283421 | 23.89° C | 40% | 1019.6 hPa | - | - | - | - |
| 1777279821 | 23.89° C | 41% | 1020 hPa | - | - | - | - |
| 1777276220 | 23.89° C | 41% | 1019.9 hPa | - | - | - | - |
| 1777272620 | 23.89° C | 42% | 1020 hPa | - | - | - | - |
| 1777269020 | 23.33° C | 44% | 1019.8 hPa | - | - | - | - |
| 1777265420 | 25° C | 42% | 1019.3 hPa | - | - | - | - |
| 1777261820 | 25° C | 42% | 1019 hPa | - | - | - | - |
* Rain since midnight (hover to see other rain measurements)
** Current wind speed in m/s (hover to see current wind gust speed)